sat.trackr.live / text

‹ back to catalog

STARLINK-37526

NORAD 69463 · 2026-127W

PAYLOAD ACTIVE UNKNOWN

§ Identity

Operator
Country
US
Launch date
2026-06-08
Launch site
AFETR
Launch vehicle
Mass (kg)
RCS (m²)

Purposes: comms

External: N2YO · Heavens-Above · Gunter

§ Orbital elements

Epoch: 2026-09-20T03:10:33.262752Z

Period
93.85 min
Inclination
53.1586°
Eccentricity
0.0001299
Mean motion
15.34411441 rev/d
Perigee alt
461.8 km
Apogee alt
463.6 km
Semi-major
6,840.8 km
B*
5.4283e-4
RAAN
167.5740°
Arg perigee
99.5290°
Mean anomaly
260.5859°
Rev number
1,613

§ Raw data

STARLINK-375261 69463U 26127W   26263.13232943  .00018015  00000+0  54283-3 0  99912 69463  53.1586 167.5740 0001299  99.5290 260.5859 15.34411441 16137

JSON: /api/v1/satellites/69463 · /tle

For live sub-satellite position, see the globe view (requires WebGL).

§ Visibility from observer

Set your observer location to see the next 7 days of passes ≥ 10°. The values pass through the URL so the page stays shareable.

No JS? Fill the form by hand. The geolocation button needs JavaScript.